Hourly Weather Barra do Bugres

Today, 2 October, Friday

Time Temperature Precipitation Wind Pressure Humidity
00:00 +32°C° 0 mm 1 mps 741 mmHg 26%
01:00 +32°C° 0 mm 1 mps 740 mmHg 27%
02:00 +32°C° 0 mm 1 mps 740 mmHg 28%
03:00 +31°C° 0 mm 1 mps 741 mmHg 31%
04:00 +31°C° 0 mm 1 mps 741 mmHg 34%
05:00 +30°C° 0 mm 2 mps 742 mmHg 36%
06:00 +32°C° 0 mm 2 mps 743 mmHg 37%
07:00 +34°C° 0 mm 2 mps 743 mmHg 37%
08:00 +35°C° 0 mm 3 mps 744 mmHg 38%
09:00 +38°C° 0 mm 3 mps 744 mmHg 33%
10:00 +40°C° 0 mm 2 mps 744 mmHg 28%
11:00 +43°C° 0 mm 2 mps 743 mmHg 22%
12:00 +42°C° 0 mm 2 mps 743 mmHg 24%
13:00 +41°C° 0 mm 2 mps 742 mmHg 25%
14:00 +40°C° 0 mm 2 mps 741 mmHg 27%
15:00 +40°C° 0 mm 2 mps 741 mmHg 25%
16:00 +40°C° 0 mm 1 mps 741 mmHg 24%
17:00 +40°C° 0 mm 1 mps 741 mmHg 23%
18:00 +37°C° 0 mm 1 mps 741 mmHg 27%
19:00 +34°C° 0 mm 1 mps 741 mmHg 31%
20:00 +30°C° 0 mm 0 mps 742 mmHg 35%
21:00 +29°C° 0 mm 0 mps 742 mmHg 37%
22:00 +28°C° 0 mm 0 mps 742 mmHg 39%
23:00 +27°C° 0 mm 0 mps 742 mmHg 40%

Tomorrow, 3 October, Saturday

Time Temperature Precipitation Wind Pressure Humidity
00:00 +27°C° 0 mm 0 mps 742 mmHg 42%
01:00 +26°C° 0 mm 0 mps 741 mmHg 43%
02:00 +25°C° 0 mm 0 mps 741 mmHg 45%
03:00 +25°C° 0 mm 0 mps 741 mmHg 46%
04:00 +25°C° 0 mm 0 mps 742 mmHg 48%
05:00 +24°C° 0 mm 0 mps 742 mmHg 49%
06:00 +28°C° 0 mm 0 mps 743 mmHg 41%
07:00 +32°C° 0 mm 0 mps 743 mmHg 34%
08:00 +36°C° 0 mm 0 mps 744 mmHg 26%
09:00 +40°C° 0 mm 0 mps 744 mmHg 22%
10:00 +44°C° 0 mm 0 mps 744 mmHg 17%
11:00 +48°C° 0 mm 0 mps 744 mmHg 12%
12:00 +50°C° 0 mm 1 mps 743 mmHg 11%
13:00 +49°C° 0 mm 1 mps 742 mmHg 11%
14:00 +48°C° 0 mm 2 mps 741 mmHg 11%
15:00 +47°C° 0 mm 2 mps 740 mmHg 12%
16:00 +45°C° 0 mm 1 mps 740 mmHg 13%
17:00 +43°C° 0 mm 1 mps 740 mmHg 14%
18:00 +41°C° 0 mm 1 mps 740 mmHg 16%
19:00 +37°C° 0 mm 1 mps 740 mmHg 19%
20:00 +35°C° 0 mm 1 mps 741 mmHg 22%
21:00 +35°C° 0 mm 1 mps 741 mmHg 22%
22:00 +34°C° 0 mm 1 mps 741 mmHg 22%
23:00 +34°C° 0 mm 1 mps 741 mmHg 23%

Day after tomorrow, 4 October, Sunday

Time Temperature Precipitation Wind Pressure Humidity
00:00 +33°C° 0 mm 1 mps 741 mmHg 24%
01:00 +32°C° 0 mm 1 mps 741 mmHg 26%
02:00 +31°C° 0 mm 1 mps 741 mmHg 28%
03:00 +30°C° 0 mm 1 mps 741 mmHg 31%
04:00 +29°C° 0 mm 1 mps 741 mmHg 33%
05:00 +27°C° 0 mm 1 mps 742 mmHg 36%
06:00 +30°C° 0 mm 1 mps 742 mmHg 32%
07:00 +33°C° 0 mm 1 mps 743 mmHg 27%
08:00 +37°C° 0 mm 2 mps 743 mmHg 23%
09:00 +40°C° 0 mm 2 mps 743 mmHg 20%
10:00 +43°C° 0 mm 2 mps 743 mmHg 18%
11:00 +47°C° 0 mm 2 mps 743 mmHg 15%
12:00 +48°C° 0 mm 2 mps 742 mmHg 13%
13:00 +49°C° 0 mm 2 mps 741 mmHg 11%
14:00 +50°C° 0 mm 2 mps 740 mmHg 9%
15:00 +49°C° 0 mm 2 mps 739 mmHg 10%
16:00 +46°C° 0 mm 1 mps 739 mmHg 10%
17:00 +45°C° 0 mm 1 mps 739 mmHg 11%
18:00 +42°C° 0 mm 1 mps 739 mmHg 14%
19:00 +37°C° 0 mm 1 mps 739 mmHg 17%
20:00 +34°C° 0 mm 1 mps 740 mmHg 20%
21:00 +33°C° 0 mm 1 mps 740 mmHg 23%
22:00 +32°C° 0 mm 1 mps 740 mmHg 25%
23:00 +31°C° 0 mm 1 mps 740 mmHg 28%

5 October, Monday

Time Temperature Precipitation Wind Pressure Humidity
00:00 +28°C° 0 mm 0 mps 740 mmHg 30%
01:00 +27°C° 0 mm 0 mps 740 mmHg 32%
02:00 +26°C° 0 mm 0 mps 740 mmHg 34%
03:00 +26°C° 0 mm 0 mps 740 mmHg 35%
04:00 +25°C° 0 mm 0 mps 740 mmHg 36%
05:00 +25°C° 0 mm 0 mps 740 mmHg 37%
06:00 +29°C° 0 mm 0 mps 741 mmHg 31%
07:00 +33°C° 0 mm 0 mps 742 mmHg 25%
08:00 +37°C° 0 mm 0 mps 743 mmHg 19%
09:00 +40°C° 0 mm 0 mps 742 mmHg 17%
10:00 +46°C° 0 mm 1 mps 742 mmHg 14%
11:00 +50°C° 0 mm 1 mps 742 mmHg 11%
12:00 +50°C° 0 mm 1 mps 741 mmHg 10%
13:00 +50°C° 0 mm 1 mps 740 mmHg 9%
14:00 +50°C° 0 mm 1 mps 739 mmHg 8%
15:00 +48°C° 0 mm 1 mps 739 mmHg 9%
16:00 +48°C° 0 mm 2 mps 739 mmHg 10%
17:00 +46°C° 0 mm 2 mps 738 mmHg 11%
18:00 +42°C° 0 mm 2 mps 739 mmHg 14%
19:00 +37°C° 0 mm 1 mps 739 mmHg 17%
20:00 +34°C° 0 mm 1 mps 739 mmHg 21%
21:00 +33°C° 0 mm 1 mps 739 mmHg 22%
22:00 +32°C° 0 mm 1 mps 740 mmHg 23%
23:00 +31°C° 0 mm 1 mps 740 mmHg 24%

6 October, Tuesday

Time Temperature Precipitation Wind Pressure Humidity
00:00 +31°C° 0 mm 1 mps 740 mmHg 25%
01:00 +31°C° 0 mm 1 mps 740 mmHg 26%
02:00 +30°C° 0 mm 1 mps 739 mmHg 27%
03:00 +29°C° 0 mm 1 mps 740 mmHg 29%
04:00 +26°C° 0 mm 0 mps 740 mmHg 31%
05:00 +25°C° 0 mm 0 mps 740 mmHg 33%
06:00 +29°C° 0 mm 0 mps 741 mmHg 29%
07:00 +34°C° 0 mm 1 mps 742 mmHg 24%
08:00 +39°C° 0 mm 1 mps 742 mmHg 20%
09:00 +42°C° 0 mm 1 mps 742 mmHg 17%
10:00 +46°C° 0 mm 1 mps 742 mmHg 15%
11:00 +49°C° 0 mm 1 mps 742 mmHg 12%
12:00 +49°C° 0 mm 2 mps 741 mmHg 12%
13:00 +48°C° 0 mm 2 mps 740 mmHg 12%
14:00 +47°C° 0 mm 3 mps 739 mmHg 12%
15:00 +46°C° 0 mm 2 mps 739 mmHg 13%
16:00 +44°C° 0 mm 1 mps 739 mmHg 14%
17:00 +43°C° 0 mm 1 mps 739 mmHg 15%
18:00 +41°C° 0 mm 1 mps 739 mmHg 18%
19:00 +37°C° 0 mm 1 mps 740 mmHg 21%
20:00 +35°C° 0 mm 1 mps 740 mmHg 23%
21:00 +33°C° 0 mm 1 mps 741 mmHg 25%
22:00 +32°C° 0 mm 1 mps 741 mmHg 27%
23:00 +29°C° 0 mm 0 mps 741 mmHg 29%

7 October, Wednesday

Time Temperature Precipitation Wind Pressure Humidity
00:00 +28°C° 0 mm 0 mps 741 mmHg 31%
01:00 +28°C° 0 mm 0 mps 740 mmHg 33%
02:00 +27°C° 0 mm 0 mps 740 mmHg 34%
03:00 +26°C° 0 mm 0 mps 740 mmHg 35%
04:00 +28°C° 0 mm 1 mps 741 mmHg 36%
05:00 +28°C° 0 mm 1 mps 741 mmHg 37%
06:00 +31°C° 0 mm 1 mps 742 mmHg 31%
07:00 +35°C° 0 mm 1 mps 743 mmHg 26%
08:00 +39°C° 0 mm 1 mps 743 mmHg 21%
09:00 +42°C° 0 mm 2 mps 743 mmHg 18%
10:00 +46°C° 0 mm 2 mps 743 mmHg 14%
11:00 +50°C° 0 mm 3 mps 743 mmHg 11%
12:00 +50°C° 0 mm 3 mps 742 mmHg 10%
13:00 +50°C° 0 mm 3 mps 741 mmHg 10%
14:00 +50°C° 0 mm 3 mps 740 mmHg 9%
15:00 +48°C° 0 mm 3 mps 740 mmHg 10%
16:00 +47°C° 0 mm 2 mps 739 mmHg 11%
17:00 +46°C° 0 mm 2 mps 739 mmHg 11%
18:00 +42°C° 0 mm 2 mps 740 mmHg 14%
19:00 +39°C° 0 mm 1 mps 740 mmHg 18%
20:00 +34°C° 0 mm 1 mps 740 mmHg 21%
21:00 +33°C° 0 mm 1 mps 741 mmHg 23%
22:00 +32°C° 0 mm 1 mps 741 mmHg 25%
23:00 +31°C° 0 mm 1 mps 741 mmHg 27%
Show more